Regional Weather Roundup
Issued by NWS

Home | Current Version | Previous Version | Text Only | Print | Product List | Glossary On
Versions: 1 2 3 4 5 6 7 8 9 10 11 12 13 14 15 16 17 18 19 20 21 22 23 24 25 26 27 28 29 30 31 32 33 34 35 36 37 38 39 40 41 42 43 44 45 46 47 48 49 50
000
ASUS43 KLMK 221110
RWRKY
SDFRWRKY ALL
KENTUCKY REGIONAL WEATHER ROUNDUP
NATIONAL WEATHER SERVICE LOUISVILLE KY
600 AM EST WED NOV 22 2017

NOTE "FAIR" INDICATES FEW OR NO CLOUDS BELOW 12,000 FEET
WITH NO SIGNIFICANT WEATHER AND/OR OBSTRUCTIONS TO VISIBILITY.

KYZ001>023-026-027-061>063-070>075-221200-
WESTERN AND SOUTH CENTRAL KENTUCKY

CITY           SKY/WX    TMP DP  RH WIND       PRES   REMARKS
PADUCAH        CLEAR     29  20  69 N8        30.31R WCI  21
HENDERSON      CLEAR     29  23  78 NW8       30.32R WCI  21
OWENSBORO      CLEAR     29  24  82 N6        30.30R WCI  23
HOPKINSVILLE   CLEAR     30  23  75 N10       30.26R WCI  21
BOWLING GREEN  CLEAR     33  26  75 N5        30.26R WCI  29
GLASGOW        CLEAR     32  28  84 N12       30.23R WCI  23
$$

KYZ024-025-028>034-038-045-046-053-221200-
NORTH CENTRAL KENTUCKY

CITY           SKY/WX    TMP DP  RH WIND       PRES   REMARKS
LOUISVILLE/SDF CLEAR     32  23  69 N13       30.26R WCI  22
LOUISVILLE/LOU CLEAR     31  24  75 N7        30.26R WCI  24
FORT KNOX      CLEAR     28  22  77 N6        30.24R WCI  22
$$

KYZ035>037-039>044-047>052-055>060-089>105-221200-
NORTHEAST KENTUCKY

CITY           SKY/WX    TMP DP  RH WIND       PRES   REMARKS
LEXINGTON      CLEAR     30  25  81 NW6       30.22R WCI  24
COVINGTON      CLEAR     29  25  85 NW9       30.22R WCI  20
FRANKFORT      CLEAR     30  23  75 NW6       30.22R WCI  24
$$

KYZ054-064>069-076>088-106>120-221200-
SOUTHEAST KENTUCKY

CITY           SKY/WX    TMP DP  RH WIND       PRES   REMARKS
JACKSON        CLOUDY    40  34  79 VRB3      30.13R
LONDON         CLEAR     36  30  79 N5        30.15R WCI  32
SOMERSET       CLEAR     34  30  86 N12G17    30.19R WCI  25
MIDDLESBORO    CLEAR     41  32  70 CALM      30.12R
MONTICELLO     CLOUDY    39  35  86 N17       30.19R WCI  30
$$




USA.gov is the U.S. government's official web portal to all federal, state and local government web resources and services.